Weather History for Winnsboro, SC

Change the Weather History Date:

Saturday, June 29, 2013

  Actual Average Record
Temperature  
Mean Temperature 82 °F -  
Max Temperature 89 °F 88 °F 107 °F (2012)
Min Temperature 75 °F 66 °F 69 °F (2014)
Cooling Degree Days 17    
Growing Degree Days 32 (Base 50)    
Moisture  
Dew Point 73 °F    
Average Humidity 78    
Maximum Humidity 94    
Minimum Humidity 52    
Precipitation  
Precipitation 0.00 in - - ()
Sea Level Pressure  
Sea Level Pressure 29.70 in    
Wind  
Wind Speed 6 mph (SW)    
Max Wind Speed 12 mph    
Max Gust Speed 16 mph    
Visibility 10 miles    
Events      
Averages and records for this station are not official NWS values.
T = Trace of Precipitation, MM = Missing Value Source: NWS Daily Summary

Daily Weather History Graph

Daily Weather History Graph

Search for Another Location

Airport:

Trip Planner

Search our weather history database for the weather conditions in past years. The results will help you decide how hot, cold, wet, or windy it might be!

Date:

Astronomy

Jun. 29, 2013 Rise Set
Actual Time 6:15 AM EDT 8:40 PM EDT
Civil Twilight 5:45 AM EDT 9:09 PM EDT
Nautical Twilight 5:09 AM EDT 9:45 PM EDT
Astronomical Twilight 4:30 AM EDT 10:25 PM EDT
Moon 12:26 AM EDT (6/29) 1:05 PM EDT (6/29)
Length of Visible Light 15h 23m
Length of Day
14h 25m
Waning Gibbous, 56% of the Moon is Illuminated
Jun 29
Waning Gibbous
Jun 30
Last Quarter
Jul 8
New
Jul 15
First Quarter
Jul 22
Full

Hourly Weather History & Observations

Time (EDT) Temp. Heat Index Dew Point Humidity Pressure Visibility Wind Dir Wind Speed Gust Speed Precip Events Conditions
12:15 AM 78.8 °F - 75.2 °F 89% 29.69 in 10.0 mi West 3.5 mph - N/A   Scattered Clouds
12:35 AM 78.8 °F - 73.4 °F 83% 29.70 in 10.0 mi WSW 5.8 mph - N/A   Clear
12:55 AM 78.8 °F - 73.4 °F 83% 29.70 in 10.0 mi West 5.8 mph - N/A   Clear
1:15 AM 78.8 °F - 73.4 °F 83% 29.70 in 10.0 mi WSW 5.8 mph - N/A   Mostly Cloudy
1:35 AM 78.8 °F - 73.4 °F 83% 29.70 in 10.0 mi SW 4.6 mph - N/A   Mostly Cloudy
1:55 AM 78.8 °F - 71.6 °F 78% 29.69 in 10.0 mi SW 6.9 mph - N/A   Mostly Cloudy
2:15 AM 77.0 °F - 71.6 °F 83% 29.69 in 10.0 mi WSW 8.1 mph - N/A   Mostly Cloudy
2:35 AM 77.0 °F - 71.6 °F 83% 29.69 in 10.0 mi WSW 6.9 mph - N/A   Overcast
2:55 AM 77.0 °F - 71.6 °F 83% 29.68 in 10.0 mi WSW 5.8 mph - N/A   Overcast
3:15 AM 77.0 °F - 71.6 °F 83% 29.67 in 10.0 mi WSW 5.8 mph - N/A   Overcast
3:35 AM 77.0 °F - 71.6 °F 83% 29.67 in 10.0 mi WSW 4.6 mph - N/A   Overcast
3:55 AM 77.0 °F - 71.6 °F 83% 29.68 in 10.0 mi SW 4.6 mph - N/A   Overcast
4:15 AM 77.0 °F - 71.6 °F 83% 29.67 in 10.0 mi SW 4.6 mph - N/A   Mostly Cloudy
4:35 AM 77.0 °F - 71.6 °F 83% 29.67 in 10.0 mi WSW 5.8 mph - N/A   Mostly Cloudy
4:55 AM 77.0 °F - 71.6 °F 83% 29.68 in 10.0 mi SW 4.6 mph - N/A   Overcast
5:15 AM 77.0 °F - 71.6 °F 83% 29.68 in 10.0 mi SW 8.1 mph - N/A   Overcast
5:35 AM 77.0 °F - 71.6 °F 83% 29.68 in 10.0 mi WSW 5.8 mph - N/A   Overcast
5:55 AM 77.0 °F - 71.6 °F 83% 29.69 in 10.0 mi SW 4.6 mph - N/A   Overcast
6:15 AM 75.2 °F - 71.6 °F 89% 29.69 in 10.0 mi SW 5.8 mph - N/A   Overcast
6:35 AM 75.2 °F - 71.6 °F 89% 29.69 in 10.0 mi SW 4.6 mph - N/A   Overcast
6:55 AM 75.2 °F - 71.6 °F 89% 29.70 in 10.0 mi SW 5.8 mph - N/A   Overcast
7:15 AM 75.2 °F - 71.6 °F 89% 29.71 in 10.0 mi SW 6.9 mph - N/A   Overcast
7:35 AM 75.2 °F - 71.6 °F 89% 29.70 in 10.0 mi SSW 5.8 mph - N/A   Mostly Cloudy
7:55 AM 75.2 °F - 71.6 °F 89% 29.71 in 10.0 mi SSW 5.8 mph - N/A   Scattered Clouds
8:15 AM 75.2 °F - 73.4 °F 94% 29.70 in 10.0 mi SW 4.6 mph - N/A   Mostly Cloudy
8:35 AM 77.0 °F - 73.4 °F 89% 29.70 in 10.0 mi SW 6.9 mph - N/A   Mostly Cloudy
8:55 AM 77.0 °F - 73.4 °F 89% 29.71 in 10.0 mi SW 5.8 mph - N/A   Overcast
9:15 AM 77.0 °F - 73.4 °F 89% 29.71 in 10.0 mi SW 4.6 mph - N/A   Overcast
9:35 AM 77.0 °F - 73.4 °F 89% 29.71 in 10.0 mi SW 6.9 mph - N/A   Overcast
9:55 AM 77.0 °F - 73.4 °F 89% 29.72 in 10.0 mi SW 6.9 mph - N/A   Overcast
10:15 AM 78.8 °F - 73.4 °F 83% 29.71 in 10.0 mi WSW 8.1 mph - N/A   Overcast
10:35 AM 78.8 °F - 73.4 °F 83% 29.72 in 10.0 mi SW 6.9 mph - N/A   Overcast
10:55 AM 78.8 °F - 73.4 °F 83% 29.71 in 10.0 mi WSW 5.8 mph - N/A   Overcast
11:15 AM 78.8 °F - 73.4 °F 83% 29.71 in 10.0 mi West 3.5 mph - N/A   Overcast
11:35 AM 80.6 °F 85.4 °F 73.4 °F 79% 29.71 in 10.0 mi SW 5.8 mph - N/A   Mostly Cloudy
11:55 AM 82.4 °F 88.2 °F 73.4 °F 74% 29.72 in 10.0 mi SSW 4.6 mph - N/A   Scattered Clouds
12:15 PM 82.4 °F 88.2 °F 73.4 °F 74% 29.72 in 10.0 mi SSW 4.6 mph - N/A   Scattered Clouds
12:35 PM 82.4 °F 88.2 °F 73.4 °F 74% 29.72 in 10.0 mi SW 5.8 mph - N/A   Mostly Cloudy
12:55 PM 84.2 °F 90.9 °F 73.4 °F 70% 29.72 in 10.0 mi South 8.1 mph - N/A   Scattered Clouds
1:15 PM 86.0 °F 93.4 °F 73.4 °F 66% 29.72 in 10.0 mi SW 5.8 mph - N/A   Scattered Clouds
1:35 PM 86.0 °F 93.4 °F 73.4 °F 66% 29.70 in 10.0 mi South 4.6 mph - N/A   Clear
1:55 PM 87.8 °F 95.6 °F 73.4 °F 62% 29.70 in 10.0 mi SSW 4.6 mph - N/A   Clear
2:15 PM 86.0 °F 91.8 °F 71.6 °F 62% 29.70 in 10.0 mi SW 4.6 mph - N/A   Clear
2:35 PM 87.8 °F 93.8 °F 71.6 °F 58% 29.70 in 10.0 mi SW 3.5 mph - N/A   Clear
2:55 PM 87.8 °F 93.8 °F 71.6 °F 58% 29.69 in 10.0 mi West 4.6 mph - N/A   Clear
3:15 PM 87.8 °F 93.8 °F 71.6 °F 58% 29.68 in 10.0 mi South 4.6 mph - N/A   Clear
3:35 PM 89.6 °F 96.2 °F 71.6 °F 55% 29.69 in 10.0 mi SSW 4.6 mph - N/A   Scattered Clouds
3:55 PM 89.6 °F 96.2 °F 71.6 °F 55% 29.69 in 10.0 mi WSW 6.9 mph - N/A   Scattered Clouds
4:15 PM 89.6 °F 96.2 °F 71.6 °F 55% 29.68 in 10.0 mi South 9.2 mph - N/A   Scattered Clouds
4:35 PM 89.6 °F 94.7 °F 69.8 °F 52% 29.68 in 10.0 mi SW 8.1 mph - N/A   Scattered Clouds
4:55 PM 89.6 °F 94.7 °F 69.8 °F 52% 29.69 in 10.0 mi SSW 8.1 mph 16.1 mph N/A   Scattered Clouds
5:15 PM 89.6 °F 94.7 °F 69.8 °F 52% 29.68 in 10.0 mi SSW 9.2 mph - N/A   Scattered Clouds
5:35 PM 89.6 °F 94.7 °F 69.8 °F 52% 29.67 in 10.0 mi SSW 10.4 mph - N/A   Clear
5:55 PM 89.6 °F 96.2 °F 71.6 °F 55% 29.67 in 10.0 mi South 10.4 mph - N/A   Scattered Clouds
6:15 PM 86.0 °F 93.4 °F 73.4 °F 66% 29.68 in 10.0 mi SSW 11.5 mph 16.1 mph N/A   Scattered Clouds
6:35 PM 84.2 °F 90.9 °F 73.4 °F 70% 29.68 in 10.0 mi SSW 10.4 mph - N/A   Scattered Clouds
6:55 PM 82.4 °F 88.2 °F 73.4 °F 74% 29.70 in 10.0 mi SSW 9.2 mph - N/A   Scattered Clouds
7:15 PM 82.4 °F 88.2 °F 73.4 °F 74% 29.71 in 10.0 mi NW 3.5 mph - N/A   Mostly Cloudy
7:35 PM 78.8 °F - 71.6 °F 78% 29.70 in 10.0 mi SSE 3.5 mph - N/A   Scattered Clouds
7:55 PM 78.8 °F - 71.6 °F 78% 29.71 in 10.0 mi SE 3.5 mph - N/A   Scattered Clouds
8:15 PM 80.6 °F 85.4 °F 73.4 °F 79% 29.70 in 10.0 mi South 8.1 mph - N/A   Scattered Clouds
8:35 PM 80.6 °F 85.4 °F 73.4 °F 79% 29.71 in 10.0 mi SSW 3.5 mph - N/A   Scattered Clouds
8:55 PM 80.6 °F 85.4 °F 73.4 °F 79% 29.71 in 10.0 mi South 5.8 mph - N/A   Scattered Clouds
9:15 PM 80.6 °F 85.4 °F 73.4 °F 79% 29.71 in 10.0 mi South 6.9 mph - N/A   Scattered Clouds
9:35 PM 80.6 °F 85.4 °F 73.4 °F 79% 29.72 in 10.0 mi South 4.6 mph - N/A   Clear
9:55 PM 80.6 °F 86.2 °F 75.2 °F 84% 29.72 in 10.0 mi South 5.8 mph - N/A   Scattered Clouds
10:15 PM 78.8 °F - 75.2 °F 89% 29.73 in 10.0 mi SSE 5.8 mph - N/A   Clear
10:35 PM 78.8 °F - 75.2 °F 89% 29.73 in 10.0 mi South 5.8 mph - N/A   Scattered Clouds
10:55 PM 78.8 °F - 75.2 °F 89% 29.74 in 10.0 mi South 6.9 mph - N/A   Scattered Clouds
11:15 PM 78.8 °F - 75.2 °F 89% 29.74 in 10.0 mi South 5.8 mph - N/A   Clear
11:35 PM 78.8 °F - 75.2 °F 89% 29.74 in 10.0 mi SSE 6.9 mph - N/A   Scattered Clouds
11:55 PM 78.8 °F - 75.2 °F 89% 29.74 in 10.0 mi South 5.8 mph - N/A   Scattered Clouds